ボーエル-スキッフ彗星

140P/Bowell-Skiff (2015)

English version
Home page
Updated on June 11, 2016

---------------------------------------------------------------------

・ プロフィール

・ 軌道要素

Epoch 2015 Aug. 6.0 TT = JDT 2457240.5
T 2015 Aug. 8.63320 TT                                  MPCW
q   1.9877704            (2000.0)            P               Q
n   0.06011935     Peri.  172.94112     -0.91599560     -0.40073600
a   6.4534689      Node   343.39525     +0.36474860     -0.81208923
e   0.6919842      Incl.    3.82129     +0.16706438     -0.42417182
P  16.4
From 113 observations 1983 Mar. 9-1999 May 8, mean residual 0".8.

・ 星図

・ 光度変化

        m1 = 7.4 + 5 logΔ + 23 log r

---------------------------------------------------------------------

軌道要素はM.P.E.C. 2015-E14に掲載されたものです。
星図はステラナビゲータ Ver.8 (アストロアーツ) で作成したものです。
光度グラフはComet for Windowsで作成したものです。

---------------------------------------------------------------------

Copyright(C) Seiichi Yoshida (comet@aerith.net). All rights reserved.